Preview of NWS' New Version of Forecast
This preview is not operational and should not be used for support decisions.

Regional Weather Roundup (RWR)

Issued by National Weather Service (NWS)

                            
000
ASUS46 KSEW 172010
RWRWA 

WASHINGTON REGIONAL WEATHER ROUNDUP
NATIONAL WEATHER SERVICE SEATTLE WA
1200 PM PST SUN FEB 17 2019

NOTE:"FAIR" INDICATES FEW OR NO CLOUDS BELOW 12,000 FEET WITH NO 
SIGNIFICANT WEATHER AND/OR OBSTRUCTIONS TO VISIBILITY.

WAZ507-509-555>559-172100-
SEATTLE, TACOMA, EVERETT, AND VICINITY
  
CITY           SKY/WX    TMP DP  RH WIND       PRES   REMARKS
EVERETT        CLOUDY    39  34  82 NW6       30.18R                  
BOEING FIELD   LGT RAIN  40  35  83 CALM      30.21R                  
RENTON         CLOUDY    40  34  79 NW5       30.20R                  
SEATAC AIRPORT CLOUDY    40  35  83 CALM      30.19R                  
JBLM-MCCHORD   CLOUDY    37  37 100 CALM      30.20R                  
PUYALLUP       PTSUNNY   37  37 100 CALM      30.19R                  
BREMERTON      LGT RAIN  39  36  87 NE5       30.19S                  
JBLM-FT LEWIS  CLOUDY    34 N/A N/A CALM      30.20R                  
TACOMA NARROWS PTSUNNY   37  35  92 S5        30.20R                  
$$
 
WAZ001-503-506-510-514-515-172100-
NORTH INTERIOR
  
CITY           SKY/WX    TMP DP  RH WIND       PRES   REMARKS
BELLINGHAM     SUNNY     42  30  62 NW8       30.20R                  
FRIDAY HARBOR  PTSUNNY   44  35  70 N8        30.22R                  
EASTSOUND      CLOUDY    41  36  81 N13       30.21R                  
PORT ANGELES   SUNNY     40  33  76 SE7       30.22R                  
EDIZ HOOK      MOCLDY    43  35  73 E3        30.23S                  
PORT TOWNSEND  FAIR      43  37  81 N8        30.20R                  
NAS WHIDBEY    NOT AVBL                                               
ARLINGTON      MOSUNNY   40  32  73 NW3       30.20R                  
BURLINGTON     SUNNY     43  28  56 NW12      30.19S                  
$$
 
WAZ020-022-039-040-504-511-512-172100-
SOUTHWEST INTERIOR
  
CITY           SKY/WX    TMP DP  RH WIND       PRES   REMARKS
SHELTON        CLOUDY    35  32  88 CALM      30.19R                  
OLYMPIA        CLOUDY    32  31  96 CALM      30.21R FOG              
CHEHALIS       CLOUDY    41  34  75 CALM      30.20S                  
KELSO          CLOUDY    40  34  79 W3        30.21R                  
VANCOUVER      CLOUDY    41  32  70 CALM      30.19R                  
SCAPPOOSE, OR  CLOUDY    42  33  70 CALM      30.19R                  
PORTLAND, OR   PTSUNNY   41  32  70 NW5       30.19R                  
$$
 
WAZ021-516-517-172100-
WASHINGTON COAST
  
CITY           SKY/WX    TMP DP  RH WIND       PRES   REMARKS
FORKS          MOSUNNY   45  30  55 CALM      30.20R                  
HOQUIAM        PTSUNNY   41  38  89 E8        30.20R                  
ASTORIA, OR    SUNNY     41  37  86 NE8       30.19R                  
$$
 
WAZ019-023-024-040-567>569-172100-
CASCADE MOUNTAINS AND COLUMBIA GORGE
  
CITY           SKY/WX    TMP DP  RH WIND       PRES   REMARKS
STAMPEDE PASS  FOG       26  23  88 VRB6      29.99R VSB 1/4          
TROUTDALE, OR  PTSUNNY   41  33  73 NW5       30.19R                  
HOOD RIVER, OR CLEAR     39  30  70 S3        30.13S                  
THE DALLES, OR SUNNY     36  28  73 CALM      30.15R                  
$$

WAZ026-027-041>044-520-521-172100-
EAST SLOPES
  
CITY           SKY/WX    TMP DP  RH WIND       PRES   REMARKS
OMAK           PTSUNNY   35  21  56 N16G26    30.10R WCI  25          
WENATCHEE      CLOUDY    32  25  75 CALM      30.09R                  
ELLENSBURG     PTSUNNY   33  25  72 E5        30.05R                  
YAKIMA         PTSUNNY   35  27  72 W5        30.09R                  
SUNNYSIDE ARPT MOCLDY    35  31  88 CALM      30.11                   
YAKIMA TC      FAIR      35  26  70 CALM      30.06R                  
$$

WAZ028-034-035-172100-
COLUMBIA BASIN
  
CITY           SKY/WX    TMP DP  RH WIND       PRES   REMARKS
EPHRATA        CLOUDY    37  25  61 N12       30.07R                  
MOSES LAKE     CLOUDY    34  26  72 CALM      30.08R                  
PASCO          CLOUDY    35  30  82 S3        30.13R                  
RICHLAND ARPT  CLOUDY    37  32  81 CALM      30.13                   
HERMISTON, OR  CLOUDY    35  32  88 SW5       30.12R                  
$$

WAZ036>038-172100-
NORTHEAST WASHINGTON
  
CITY           SKY/WX    TMP DP  RH WIND       PRES   REMARKS
SPOKANE GEIGER LGT SNOW  25  19  78 E17       30.03R WCI  12          
SPOKANE FELTS  LGT SNOW  29  19  66 E14G23    30.06R WCI  18          
FAIRCHILD AFB  CLOUDY    25  25 100 E14       30.01S WCI  13          
COEURDALENE,ID FLURRIES  26  18  71 N21       30.06R WCI  12          
DEER PARK      CLOUDY    26  16  65 NE15G25   30.07R WCI  14          
$$

WAZ029>033-172100-
SOUTHEAST WASHINGTON
  
CITY           SKY/WX    TMP DP  RH WIND       PRES   REMARKS
PULLMAN        LGT SNOW  28  25  88 W7        30.01R FOG              
LEWISTON, ID   CLOUDY    35  28  75 W9        30.04R                  
WALLA WALLA    CLOUDY    32  29  88 W5        30.08R FOG              
PENDLETON, OR  CLOUDY    31  29  92 W8        30.07R FOG              
$$